Weather History for Melbourne Airport, Victoria

Change the Weather History Date:

Monday, August 26, 2013

  Actual Average Record
Temperature  
Mean Temperature 55 °F -  
Max Temperature 64 °F 59 °F - ()
Min Temperature 46 °F 43 °F - ()
Degree Days  
Heating Degree Days 10    
Growing Degree Days 5 (Base 50)    
Moisture  
Dew Point 45 °F    
Average Humidity 65    
Maximum Humidity 87    
Minimum Humidity 34    
Precipitation  
Precipitation 0.00 in 0.06 in - ()
Sea Level Pressure  
Sea Level Pressure 30.21 in    
Wind  
Wind Speed 8 mph ()    
Max Wind Speed 17 mph    
Max Gust Speed -    
Visibility 8.0 miles    
Events      
T = Trace of Precipitation, MM = Missing Value Source: Averaged Metar Reports

Daily Weather History Graph

Daily Weather History Graph

Search for Another Location

Airport:

Trip Planner

Search our weather history database for the weather conditions in past years. The results will help you decide how hot, cold, wet, or windy it might be!

Date:

Astronomy

Aug. 26, 2013 Rise Set
Actual Time 6:51 AM AEST 5:54 PM AEST
Civil Twilight 6:24 AM AEST 6:21 PM AEST
Nautical Twilight 5:54 AM AEST 6:51 PM AEST
Astronomical Twilight 5:23 AM AEST 7:21 PM AEST
Moon 11:32 PM AEST (8/26) 9:30 AM AEST (8/26)
Length of Visible Light 11h 56m
Length of Day
11h 03m
Waning Gibbous, 72% of the Moon is Illuminated
Aug 26
Waning Gibbous
Aug 28
Last Quarter
Sep 5
New
Sep 13
First Quarter
Sep 19
Full

Hourly Weather History & Observations

Time (AEST) Temp. Windchill Dew Point Humidity Pressure Visibility Wind Dir Wind Speed Gust Speed Precip Events Conditions
12:00 AM 54 °F - 46 °F 66% 30.24 in 19 mi WNW 4.6 mph - -   Partly Cloudy
12:00 AM 53.6 °F - 46.4 °F 77% 30.21 in 6.2 mi WNW 4.6 mph - N/A   Mostly Cloudy
12:30 AM 55.4 °F - 44.6 °F 67% 30.21 in - WNW 6.9 mph - N/A   Clear
1:00 AM 53 °F - 46 °F 69% 30.25 in - WNW 4.6 mph - -  
1:00 AM 53.6 °F - 46.4 °F 77% 30.21 in - WNW 4.6 mph - N/A   Clear
1:30 AM 55.4 °F - 44.6 °F 67% 30.21 in - NNW 6.9 mph - N/A   Clear
2:00 AM 54 °F - 46 °F 65% 30.24 in - NNW 8.1 mph - -  
2:00 AM 53.6 °F - 46.4 °F 77% 30.21 in - NNW 8.1 mph - N/A   Clear
2:30 AM 53.6 °F - 44.6 °F 72% 30.21 in - NNW 9.2 mph - N/A   Clear
3:00 AM 53 °F - 46 °F 69% 30.22 in 19 mi NNW 6.9 mph - -   Partly Cloudy
3:00 AM 53.6 °F - 46.4 °F 77% 30.21 in - NNW 6.9 mph - N/A   Clear
3:30 AM 53.6 °F - 46.4 °F 77% 30.18 in - North 9.2 mph - N/A   Clear
4:00 AM 52 °F - 46 °F 71% 30.21 in - North 10.4 mph - -  
4:00 AM 51.8 °F - 46.4 °F 82% 30.18 in - North 10.4 mph - N/A   Clear
4:30 AM 51.8 °F - 44.6 °F 76% 30.18 in - NNW 11.5 mph - N/A   Clear
5:00 AM 49 °F - 44 °F 76% 30.22 in - WNW 6.9 mph - -  
5:00 AM 48.2 °F - 44.6 °F 87% 30.18 in - WNW 6.9 mph - N/A   Clear
5:30 AM 50.0 °F - 44.6 °F 82% 30.18 in - NNW 11.5 mph - N/A   Clear
6:00 AM 50 °F - 44 °F 73% 30.22 in 19 mi North 15.0 mph - -   Partly Cloudy
6:00 AM 50.0 °F - 44.6 °F 82% 30.21 in - North 15.0 mph - N/A   Clear
6:30 AM 48.2 °F - 42.8 °F 82% 30.21 in - North 11.5 mph - N/A   Clear
7:00 AM 47 °F - 43 °F 81% 30.24 in - North 9.2 mph - -  
7:00 AM 46.4 °F 41.9 °F 42.8 °F 87% 30.21 in 6.2 mi North 9.2 mph - N/A   Mostly Cloudy
7:30 AM 50.0 °F - 44.6 °F 82% 30.24 in 6.2 mi North 11.5 mph - N/A   Scattered Clouds
8:00 AM 51 °F - 45 °F 74% 30.25 in - North 10.4 mph - -  
8:00 AM 51.8 °F - 44.6 °F 76% 30.21 in 6.2 mi North 10.4 mph - N/A   Scattered Clouds
8:30 AM 53.6 °F - 46.4 °F 77% 30.24 in 6.2 mi North 11.5 mph - N/A   Scattered Clouds
9:00 AM 54 °F - 46 °F 66% 30.25 in 25 mi North 11.5 mph - -   Partly Cloudy
9:00 AM 53.6 °F - 46.4 °F 77% 30.24 in 6.2 mi North 11.5 mph - N/A   Mostly Cloudy
9:30 AM 57.2 °F - 46.4 °F 67% 30.24 in 6.2 mi North 9.2 mph - N/A   Mostly Cloudy
10:00 AM 59 °F - 46 °F 52% 30.24 in - North 10.4 mph - -  
10:00 AM 59.0 °F - 46.4 °F 63% 30.21 in 6.2 mi North 10.4 mph - N/A   Mostly Cloudy
10:30 AM 62.6 °F - 42.8 °F 48% 30.21 in 6.2 mi NW 11.5 mph - N/A   Mostly Cloudy
11:00 AM 63 °F - 42 °F 34% 30.23 in - NNW 13.8 mph - -  
11:00 AM 62.6 °F - 41.0 °F 45% 30.21 in 6.2 mi NNW 13.8 mph - N/A   Mostly Cloudy
11:30 AM 64.4 °F - 42.8 °F 45% 30.21 in 6.2 mi NW 15.0 mph - N/A   Mostly Cloudy
12:00 PM 62.6 °F - 42.8 °F 48% 30.21 in 6.2 mi NNW 15.0 mph - N/A   Mostly Cloudy
12:30 PM 64.4 °F - 42.8 °F 45% 30.18 in 6.2 mi NNW 17.3 mph - N/A   Mostly Cloudy
1:00 PM 64 °F - 42 °F 34% 30.20 in - NW 15.0 mph - -  
1:00 PM 64.4 °F - 42.8 °F 45% 30.18 in 6.2 mi NW 15.0 mph - N/A   Mostly Cloudy
1:30 PM 62.6 °F - 41.0 °F 45% 30.18 in 6.2 mi WSW 13.8 mph - N/A   Mostly Cloudy
2:00 PM 64.4 °F - 41.0 °F 42% 30.18 in 6.2 mi WSW 12.7 mph - N/A   Mostly Cloudy
2:30 PM 64.4 °F - 42.8 °F 45% 30.15 in - WSW 12.7 mph - N/A   Clear
3:00 PM 64.4 °F - 42.8 °F 45% 30.18 in - WSW 13.8 mph - N/A   Clear
3:30 PM 64.4 °F - 44.6 °F 49% 30.15 in 6.2 mi WSW 11.5 mph - N/A   Mostly Cloudy
4:00 PM 62 °F - 45 °F 43% 30.19 in - SSW 10.4 mph - -  
4:00 PM 62.6 °F - 44.6 °F 52% 30.18 in 6.2 mi SSW 10.4 mph - N/A   Mostly Cloudy
4:30 PM 60.8 °F - 44.6 °F 55% 30.18 in 6.2 mi SW 12.7 mph - N/A   Mostly Cloudy
5:00 PM 60 °F - 43 °F 43% 30.19 in - WSW 6.9 mph - -  
5:00 PM 60.8 °F - 42.8 °F 52% 30.18 in 6.2 mi WSW 6.9 mph - N/A   Mostly Cloudy
5:30 PM 59.0 °F - 46.4 °F 63% 30.18 in 6.2 mi West 6.9 mph - N/A   Mostly Cloudy
6:00 PM 58 °F - 46 °F 54% 30.20 in 25 mi West 5.8 mph - -   Partly Cloudy
6:00 PM 59.0 °F - 46.4 °F 63% 30.18 in 6.2 mi West 5.8 mph - N/A   Mostly Cloudy
6:30 PM 57.2 °F - 44.6 °F 63% 30.18 in 6.2 mi West 5.8 mph - N/A   Mostly Cloudy
7:00 PM 56 °F - 46 °F 60% 30.21 in - WNW 4.6 mph - -  
7:00 PM 55.4 °F - 46.4 °F 72% 30.18 in - WNW 4.6 mph - N/A   Clear
7:30 PM 57.2 °F - 44.6 °F 63% 30.21 in - WNW 5.8 mph - N/A   Clear
8:00 PM 56 °F - 46 °F 60% 30.22 in - North 6.9 mph - -  
8:00 PM 57.2 °F - 46.4 °F 67% 30.21 in - North 6.9 mph - N/A   Clear
8:30 PM 57.2 °F - 46.4 °F 67% 30.21 in 6.2 mi NNW 4.6 mph - N/A   Mostly Cloudy
9:00 PM 54 °F - 47 °F 70% 30.22 in 19 mi North 6.9 mph - -   Partly Cloudy
9:00 PM 53.6 °F - 46.4 °F 77% 30.21 in - North 6.9 mph - N/A   Clear
9:30 PM 55.4 °F - 46.4 °F 72% 30.21 in - North 5.8 mph - N/A   Clear
10:00 PM 53 °F - 46 °F 70% 30.22 in - North 8.1 mph - -  
10:00 PM 53.6 °F - 46.4 °F 77% 30.21 in - North 8.1 mph - N/A   Clear
10:30 PM 53.6 °F - 46.4 °F 77% 30.18 in - North 9.2 mph - N/A   Clear
11:00 PM 53 °F - 46 °F 71% 30.21 in - North 11.5 mph - -  
11:00 PM 53.6 °F - 46.4 °F 77% 30.18 in - North 11.5 mph - N/A   Clear
11:30 PM 53.6 °F - 46.4 °F 77% 30.18 in - North 9.2 mph - N/A   Clear